{"data":{"norad_id":65818,"epoch":"2026-05-25T04:33:41.157216Z","epoch_age_seconds":48688,"freshness":"FRESH","line1":"1 65818U 25220B   26145.19005969  .00000037  00000+0  51374-4 0  9999","line2":"2 65818  86.5007  51.6710 0001359  66.6176 293.5100 13.24406185 31879","mean_motion":13.24406185,"eccentricity":0.0001359,"inclination_deg":86.5007,"raan_deg":51.671,"arg_perigee_deg":66.6176,"mean_anomaly_deg":293.51,"bstar":5.1374e-5,"rev_number":3187,"period_min":108.7279730576,"perigee_km":1166.9111653384,"apogee_km":1168.9621881637,"semimajor_km":7546.0736767511,"source":"CELESTRAK","updated_at":"2026-05-25T13:38:05.700816Z"}}